Location: Oriwa
(40.7500°S, 175.3333°E)
Time: 15:28:39
(UTC+00:00)

PAYLOAD A - Visible Passes

Search period start: 30 September 2023 00:00
Search period end: 10 October 2023 00:00
Orbit: 690 x 832 km, 98.5° (Epoch: 29 September)

Date Brightness Start Highest point End Pass type
(mag) Time Alt. Az. Time Alt. Az. Time Alt. Az.
30 Sep 5.9 14:11:09 29° SE 14:11:09 29° SE 14:14:55 10° S visible
30 Sep 5.4 15:51:15 25° SW 15:51:15 25° SW 15:53:56 10° SSW visible
01 Oct 6.7 13:32:31 15° ESE 13:32:41 15° ESE 13:35:43 10° SSE visible
01 Oct 4.8 15:12:37 44° SSW 15:12:37 44° SSW 15:16:22 10° SSW visible
02 Oct 5.2 14:34:00 43° SE 14:34:00 43° SE 14:38:17 10° S visible
02 Oct 5.7 16:14:06 19° WSW 16:14:06 19° WSW 16:16:22 10° SW visible
03 Oct 6.2 13:55:23 23° ESE 13:55:24 23° ESE 13:59:39 10° SSE visible
03 Oct 4.9 15:35:29 38° SW 15:35:29 38° SW 15:39:15 10° SSW visible
04 Oct 6.9 13:16:45 10° ESE 13:18:01 11° ESE 13:19:36 10° SE visible
04 Oct 4.5 14:56:51 61° S 14:56:51 61° S 15:01:28 10° S visible
04 Oct 6.0 16:36:57 12° WSW 16:36:57 12° WSW 16:38:06 10° WSW visible
05 Oct 5.5 14:18:14 36° ESE 14:18:14 36° ESE 14:23:11 10° S visible
05 Oct 5.2 15:58:20 28° WSW 15:58:20 28° WSW 16:01:53 10° SW visible
06 Oct 6.5 13:39:37 17° ESE 13:40:40 18° ESE 13:44:13 10° SSE visible
06 Oct 4.3 15:19:43 60° WSW 15:19:43 60° WSW 15:24:27 10° SSW visible
07 Oct 4.7 14:41:05 57° ESE 14:41:05 57° ESE 14:46:28 10° S visible
07 Oct 5.6 16:21:11 18° W 16:21:11 18° W 16:24:08 10° SW visible
08 Oct 5.9 14:02:29 26° E 14:03:25 27° ESE 14:07:57 10° S visible
08 Oct 4.6 15:42:35 41° W 15:42:35 41° W 15:47:14 10° SSW visible
09 Oct 6.8 13:23:52 11° E 13:25:59 13° ESE 13:28:27 10° SSE visible
09 Oct 4.0 15:03:58 87° NNE 15:04:02 89° E 15:09:34 10° SSW visible
09 Oct 6.0 16:44:04 11° W 16:44:04 11° W 16:45:16 10° WSW visible
